Regional Weather Roundup
Issued by NWS

Home | Current Version | Previous Version | Text Only | Print | Product List | Glossary Off
Versions: 1 2 3 4 5 6 7 8 9 10 11 12 13 14 15 16 17 18 19 20 21 22 23 24 25 26 27 28 29 30 31 32 33 34 35 36 37 38 39 40 41 42 43 44 45 46 47 48 49 50

315
ASUS43 KDTX 101810
RWRMI
MICHIGAN HOURLY REGIONAL WEATHER ROUNDUP
NATIONAL WEATHER SERVICE DETROIT/PONTIAC MI
ISSUED BY NATIONAL WEATHER SERVICE GRAND RAPIDS MI
100 PM EST SAT DEC 10 2016

NOTE: "FAIR" INDICATES FEW OR NO CLOUDS BELOW 12,000 FEET WITH NO
SIGNIFICANT WEATHER AND/OR OBSTRUCTION TO VISIBILITY.

MIZ047>049-052>055-059>063-066>070-074>076-081>083-101900-
SOUTHEAST LOWER MICHIGAN

CITY           SKY/WX    TMP DP  RH WIND       PRES   REMARKS
ADRIAN         SUNNY     27  15  61 W14       30.44F WCI  16
6HR MIN TEMP:  19; 6HR MAX TEMP:  27;

ALMA           CLOUDY    25  12  57 W14G20    30.39F WCI  13
ANN ARBOR      CLOUDY    26  16  65 SW21      30.40F WCI  12
BAD AXE        CLOUDY    25  13  61 W16G22    30.35F WCI  12
6HR MIN TEMP:  23; 6HR MAX TEMP:  27;

DETROIT CITY   CLOUDY    27  18  69 W14G21    30.41F WCI  16
6HR MIN TEMP:  23; 6HR MAX TEMP:  28;

DETROIT        PTSUNNY   30  15  53 W17       30.42F WCI  18
6HR MIN TEMP:  23; 6HR MAX TEMP:  30; 6HR PCP: TRACE;

FLINT          CLOUDY    25  19  78 W10       30.38F WCI  15
6HR MIN TEMP:  19; 6HR MAX TEMP:  25; 6HR PCP:  0.01;

GROSSE ILE     PTSUNNY   29  16  58 W12       30.42F WCI  19
6HR MIN TEMP:  23; 6HR MAX TEMP:  29;

HILLSDALE      CLOUDY    25  16  68 SW13G20   30.39F WCI  13
HOWELL         FLURRIES  26  19  76 SW9       30.38F WCI  16
6HR MIN TEMP:  21; 6HR MAX TEMP:  26;


CITY           SKY/WX    TMP DP  RH WIND       PRES   REMARKS
JACKSON        CLOUDY    23  17  78 SW15      30.40F WCI  10
6HR MIN TEMP:  18; 6HR MAX TEMP:  23; 6HR PCP: TRACE;

LANSING        CLOUDY    25  16  68 W13       30.40F WCI  14
6HR MIN TEMP:  20; 6HR MAX TEMP:  25; 6HR PCP:  0.02;

MASON          LGT SNOW  24  19  82 SW10G16   30.40F WCI  14
MONROE         CLOUDY    31  17  57 SW20      30.42F WCI  19
6HR MIN TEMP:  22; 6HR MAX TEMP:  31;

MT. CLEMENS    FLURRIES  28  17  63 SW13      30.38F WCI  17
6HR MIN TEMP:  23; 6HR MAX TEMP:  29; 6HR PCP: TRACE;

PONTIAC        FLURRIES  25  17  72 W12       30.36F WCI  14
6HR MIN TEMP:  21; 6HR MAX TEMP:  25; 6HR PCP: TRACE;

PORT HOPE        N/A     26  11  52 W9G20     30.32F WCI  17
6HR MIN TEMP:  23; 6HR MAX TEMP:  27;

PORT HURON     CLOUDY    27  14  59 W7        30.38F WCI  19
TRI CITIES     CLOUDY    26  15  63 SW12      30.38F WCI  16
6HR MIN TEMP:  18; 6HR MAX TEMP:  26; 6HR PCP: TRACE;

YPSILANTI      CLOUDY    29  17  61 SW16      30.41F WCI  17
6HR MIN TEMP:  23; 6HR MAX TEMP:  29; 6HR PCP: TRACE;

$$
MIZ043>046-050>051-056>058-064>065-071>073-077>080-101900-
SOUTHWEST LOWER MICHIGAN

CITY           SKY/WX    TMP DP  RH WIND       PRES   REMARKS
BATTLE CREEK   LGT SNOW  23  19  85 SW15      30.41F FOG     WCI  10
6HR MIN TEMP:  20; 6HR MAX TEMP:  23; 6HR PCP: TRACE;

BENTON HARBOR  CLOUDY    26  16  65 W13       30.46S WCI  15
6HR MIN TEMP:  25; 6HR MAX TEMP:  26; 6HR PCP: TRACE;

BIG RAPIDS     LGT SNOW  22  14  73 W7        30.36F WCI  13
6HR MIN TEMP:  18; 6HR MAX TEMP:  22;

COLDWATER      CLOUDY    24  19  78 SW10G18   30.43F WCI  14
6HR MIN TEMP:  18; 6HR MAX TEMP:  24;

HOLLAND        FLURRIES  25  17  72 W10       30.42F WCI  15
6HR MIN TEMP:  25; 6HR MAX TEMP:  26; 6HR PCP: TRACE;

GRAND RAPIDS   SNOW      23  18  81 NW12      30.41F VSB 1/2 WCI  12
6HR MIN TEMP:  21; 6HR MAX TEMP:  24; 6HR PCP:  0.04;

KALAMAZOO      SNOW      23  18  81 SW10      30.42F VSB 1/2 WCI  12
6HR MIN TEMP:  20; 6HR MAX TEMP:  23; 6HR PCP: TRACE;

MARSHALL       CLOUDY    24  18  79 SW8       30.41F WCI  15
6HR MIN TEMP:  19; 6HR MAX TEMP:  24;

MOUNT PLEASANT CLOUDY    25  11  54 W13G20    30.37S WCI  14
6HR MIN TEMP:  17; 6HR MAX TEMP:  27;

MUSKEGON       CLOUDY    25  15  66 NW12G17   30.41F WCI  14
6HR MIN TEMP:  24; 6HR MAX TEMP:  26; 6HR PCP: TRACE;

STURGIS        CLOUDY    24  17  77 SW10      30.43F WCI  13
6HR MIN TEMP:  19; 6HR MAX TEMP:  24;

$$
MIZ016>042-101900-
NORTHERN LOWER MICHIGAN

CITY           SKY/WX    TMP DP  RH WIND       PRES   REMARKS
ALPENA         CLOUDY    24  13  62 W8        30.31F WCI  15
6HR MIN TEMP:  21; 6HR MAX TEMP:  24; 6HR PCP:  0.01;

BEAVER ISLAND  CLOUDY    23  14  66 W10G18    30.31F WCI  13
6HR MIN TEMP:  19; 6HR MAX TEMP:  24;

BELLAIRE       CLOUDY    21  13  71 W5        30.35F WCI  15
6HR MIN TEMP:  21; 6HR MAX TEMP:  22;

CADILLAC       LGT SNOW  20  16  83 W7        30.30S VSB 3/4 WCI  11
CHARLEVOIX     LGT SNOW  21  16  79 W10       30.35F WCI  10
6HR MIN TEMP:  21; 6HR MAX TEMP:  22;

GAYLORD        LGT SNOW  20  12  71 W13       30.27F WCI   7
6HR MIN TEMP:  14; 6HR MAX TEMP:  20; 6HR PCP: TRACE;

HOUGHTON LAKE  CLOUDY    21  12  68 W13       30.32F WCI   9
6HR MIN TEMP:  17; 6HR MAX TEMP:  21; 6HR PCP: TRACE;

MANISTEE       FLURRIES  22  12  65 W12       30.37F WCI  10
OSCODA         PTSUNNY   27   9  46 W14       30.32F WCI  16
6HR MIN TEMP:  20; 6HR MAX TEMP:  29;

PELLSTON       HVY SNOW  20  15  81 W8        30.31F VSB 1/4 WCI  10
6HR MIN TEMP:  19; 6HR MAX TEMP:  20; 6HR PCP:  0.04;

TRAVERSE CITY  CLOUDY    20  12  71 NW13      30.35F WCI   7
6HR MIN TEMP:  20; 6HR MAX TEMP:  22; 6HR PCP:  0.06;

LUDINGTON      FLURRIES  22  12  66 W8        30.38F WCI  12
6HR MIN TEMP:  21; 6HR MAX TEMP:  23;

$$
MIZ007>008-015-101900-
EASTERN UPPER MICHIGAN

CITY           SKY/WX    TMP DP  RH WIND       PRES   REMARKS
KINROSS        SUNNY     23  13  65 W10       30.27F WCI  12
6HR MIN TEMP:  10; 6HR MAX TEMP:  23;

MACKINAC ISLAN CLOUDY    22  11  63 SW8       30.28F WCI  12
6HR MIN TEMP:  19; 6HR MAX TEMP:  22;

NEWBERRY       CLOUDY    17  12  81 W10       30.25F WCI   4
6HR MIN TEMP:   6; 6HR MAX TEMP:  17;

S. S. MARIE    SUNNY     19  11  70 SW6       30.27F WCI  11
6HR MIN TEMP:  14; 6HR MAX TEMP:  19; 6HR PCP:  0.01;

$$
MIZ004>006-011>014-085-101900-
CENTRAL UPPER MICHIGAN

CITY           SKY/WX    TMP DP  RH WIND       PRES   REMARKS
MANISTIQUE     PTSUNNY   17  10  71 W10G18    30.31S WCI   5
6HR MIN TEMP:   8; 6HR MAX TEMP:  18;

ESCANABA       SUNNY     20   5  52 W10G21    30.35F WCI   9
6HR MIN TEMP:   9; 6HR MAX TEMP:  20;

MENOMINEE      SUNNY     17   1  49 VRB6      30.39F WCI   9
6HR MIN TEMP:  12; 6HR MAX TEMP:  18;

SAWYER-GWINN   SUNNY     16   5  62 W13G18    30.29F WCI   2
$$
MIZ001>003-009>011-084-101900-
WESTERN UPPER MICHIGAN

CITY           SKY/WX    TMP DP  RH WIND       PRES   REMARKS
IRON MOUNTAIN  SUNNY     16   0  49 W10       30.32F WCI   4
6HR MIN TEMP:   7; 6HR MAX TEMP:  16;

HOUGHTON       FLURRIES  14   5  67 NW10      30.31F WCI   1
6HR MIN TEMP:  13; 6HR MAX TEMP:  15; 6HR PCP:  0.02;

COPPER HARBOR    N/A     20  17  88 N17G26    30.33F WCI   5
6HR MIN TEMP:  17; 6HR MAX TEMP:  21; 6HR PCP:  0.03;

IRONWOOD       MOSUNNY   10   0  61 SW7       30.37F WCI   0
6HR MIN TEMP:   5; 6HR MAX TEMP:   9; 6HR PCP: TRACE;

$$

ABBREVIATIONS USED IN REMARKS
   TC - TEMPERATURE IN CELSIUS
  WCI - WIND CHILL INDEX
   HX - HEAT INDEX
  VSB - VISIBILITY





USA.gov is the U.S. government's official web portal to all federal, state and local government web resources and services.